Weather in Angra do Heroismo

Portugal     38°39′20″N   27°13′15″W
temp.,
°C
wind,
m/s
gust,
m/s
humid.,
%
clouds,
%
prec.,
mm/h
press.,
hPa
HPBL,
m
14 june, mon
mon1400:00+17ese11929 0.0 103123
03:00+16se11895 0.0 103040
06:00+16nne11865 0.0 103050
09:00+19ene11720 0.0 1031322
12:00+22ene12645 0.0 1031792
15:00+22n216732 0.0 1030726
18:00+20ne227365 0.0 1030571
21:00+18ne11823 0.0 103065
15 june, tue
tue1500:00+17nne118820 0.0 103016
03:00+16nne118710 0.0 102924
06:00+16nw118623 0.0 102954
09:00+19nw227253 0.0 1029319
12:00+22nw44645 0.0 1028773
15:00+22nw44645 0.0 1027859
18:00+21nw3474100 0.0 1027705
21:00+19wnw3592100 0.0 1028263
16 june, wed
wed1600:00+18w3496100 0.1 1027206
03:00+18wnw4695100 0.4 1025366
06:00+18wnw4794100 1.3 1025520
09:00+17ne349494 1.0 1025371
12:00+17ne3488100 1.2 1026510
15:00+16ne3488100 0.5 1026503
18:00+18ne4471100 0.5 1027800
21:00+15ne347595 0.0 1028358
17 june, thu
thu1700:00+14ne337659 0.0 1029307
03:00+14ne237529 0.0 1029308
06:00+13ne2276100 0.0 1028289
09:00+16ene126580 0.0 1029661
12:00+19e015498 0.0 1029870
15:00+19n015563 0.0 1028873
18:00+19w015734 0.0 1027707
21:00+16sw1269100 0.0 1028195
18 june, fri
fri1800:00+17ssw347479 0.0 1026272
03:00+17ssw4691100 0.1 1024389
06:00+19wsw469697 0.4 1023331
09:00+20wnw699132 0.1 1022527
12:00+21nw7118695 0.2 1022874
15:00+21nw7108663 0.3 1022736
18:00+20nnw698666 0.4 1022702
21:00+19nnw589497 0.2 1023595